This demonstration page uses our WeatherBlox Daily Observations layout. Learn more.

Hourly Observations for August 31, 2019

Temp ( °F °C ) Dew Point ( °F °C ) Humidity (%) Winds ( mph kmh ) Pressure ( in mb ) Visibility ( mi km ) Precip ( " mm )
12:15 am 00:15 Cloudy 67 19.3 66 18.7 96 96 SE 9 15 30.09 1019 10 16.09344 0 0
12:35 am 00:35 Cloudy 66 19.1 65 18.5 96 96 SE 8 13 30.09 1019 10 16.09344 0 0
12:55 am 00:55 Cloudy 66 18.9 65 18.5 98 98 SE 10 17 30.09 1019 10 16.09344 0 0
1:15 am 01:15 Cloudy 66 19 65 18.5 97 97 SSE 8 13 30.09 1019 10 16.09344 0 0
1:35 am 01:35 Cloudy 66 19 65 18.5 97 97 SE 7 11 30.09 1019 10 16.09344 0 0
1:55 am 01:55 Cloudy 66 19 65 18.5 97 97 SE 8 13 30.12 1020 10 16.09344 0 0
2:15 am 02:15 Cloudy 66 19 65 18.5 97 97 SE 8 13 30.09 1019 10 16.09344 0 0
2:35 am 02:35 Cloudy 66 18.8 65 18.3 97 97 SE 10 17 30.06 1018 10 16.09344 0 0
2:55 am 02:55 Cloudy 66 18.8 65 18.3 97 97 S 8 13 30.09 1019 10 16.09344 0 0
3:15 am 03:15 Cloudy 66 19 65 18.5 97 97 S 6 9 30.09 1019 10 16.09344 0 0
3:35 am 03:35 Cloudy 66 19 65 18.5 97 97 S 10 17 30.06 1018 10 16.09344 0 0
3:55 am 03:55 Cloudy 66 18.9 65 18.3 96 96 S 9 15 30.06 1018 10 16.09344 0 0
4:15 am 04:15 Cloudy 65 18.6 65 18.2 98 98 S 8 13 30.06 1018 10 16.09344 0 0
4:35 am 04:35 Cloudy 66 18.7 65 18.2 97 97 S 9 15 30.06 1018 10 16.09344 0 0
4:55 am 04:55 Cloudy 66 18.7 64 18 96 96 S 9 15 30.06 1018 10 16.09344 0 0
5:15 am 05:15 Cloudy 66 18.7 64 18 96 96 S 8 13 30.06 1018 10 16.09344 0 0
5:35 am 05:35 Cloudy 65 18.6 64 17.7 95 95 SSE 8 13 30.06 1018 10 16.09344 0 0
5:55 am 05:55 Cloudy 65 18.6 64 17.5 93 93 S 9 15 30.06 1018 10 16.09344 0 0
6:15 am 06:15 Cloudy 65 18.6 63 17.3 92 92 S 10 17 30.06 1018 10 16.09344 0 0
6:35 am 06:35 Cloudy 65 18.5 63 17.1 92 92 SSE 9 15 30.06 1018 10 16.09344 0 0
6:55 am 06:55 Cloudy 65 18.3 63 17.3 94 94 SE 10 17 30.06 1018 10 16.09344 0 0
7:15 am 07:15 Cloudy 65 18.1 63 17.3 95 95 SE 9 15 30.06 1018 10 16.09344 0 0
7:35 am 07:35 Cloudy 65 18.1 63 17.3 95 95 ESE 9 15 30.06 1018 10 16.09344 0 0
7:55 am 07:55 Cloudy 64 18 64 17.5 97 97 SE 9 15 30.06 1018 10 16.09344 0 0
8:15 am 08:15 Cloudy 65 18.1 64 17.5 96 96 SE 10 17 30.06 1018 10 16.09344 0 0
8:35 am 08:35 Cloudy 65 18.2 64 17.5 96 96 ESE 9 15 30.06 1018 10 16.09344 0 0
8:55 am 08:55 Cloudy 65 18.4 64 17.5 95 95 SE 8 13 30.06 1018 10 16.09344 0 0
9:15 am 09:15 Cloudy 65 18.5 64 17.5 94 94 ESE 10 17 30.09 1019 10 16.09344 0 0
9:35 am 09:35 Cloudy 65 18.6 64 17.5 93 93 SE 10 17 30.09 1019 10 16.09344 0 0
9:55 am 09:55 Cloudy 66 18.8 63 17.4 92 92 SSE 12 19 30.09 1019 10 16.09344 0 0
10:15 am 10:15 Cloudy 67 19.3 64 17.5 89 89 SSE 9 15 30.09 1019 10 16.09344 0 0
10:35 am 10:35 Cloudy 67 19.6 64 17.6 88 88 SSE 10 17 30.06 1018 10 16.09344 0 0
10:55 am 10:55 Cloudy 68 20.1 64 17.7 86 86 SSE 13 20 30.06 1018 10 16.09344 0 0
11:15 am 11:15 Cloudy 69 20.5 64 17.8 85 85 SSE 12 19 30.06 1018 10 16.09344 0 0
11:35 am 11:35 Cloudy 69 20.5 64 17.7 84 84 SSE 7 11 30.06 1018 10 16.09344 0 0
11:55 am 11:55 Cloudy 69 20.7 64 17.7 83 83 S 9 15 30.03 1017 10 16.09344 0 0
12:15 pm 12:15 Cloudy 69 20.4 64 17.8 85 85 SSE 6 9 30.09 1019 10 16.09344 0 0
12:35 pm 12:35 Cloudy 69 20.5 64 17.7 84 84 SSE 7 11 30.09 1019 10 16.09344 0 0
12:55 pm 12:55 Cloudy 69 20.8 64 17.9 84 84 S 8 13 30.03 1017 10 16.09344 0 0
1:15 pm 13:15 Cloudy 70 21 64 17.8 82 82 SSE 9 15 30.03 1017 10 16.09344 0 0
1:35 pm 13:35 Cloudy 70 21 64 17.8 82 82 S 9 15 30.03 1017 10 16.09344 0 0
1:55 pm 13:55 Cloudy 71 21.5 65 18.1 81 81 SSE 8 13 30.03 1017 10 16.09344 0 0
2:15 pm 14:15 Cloudy 71 21.5 64 17.9 80 80 SSE 9 15 30.03 1017 10 16.09344 0 0
2:35 pm 14:35 Cloudy 72 22.3 65 18.2 78 78 SSE 9 15 30.03 1017 10 16.09344 0 0
2:55 pm 14:55 Cloudy 72 22.2 65 18.2 78 78 SSE 8 13 30.03 1017 10 16.09344 0 0
3:15 pm 15:15 Cloudy 72 22.2 64 18 77 77 SSE 9 15 30.03 1017 10 16.09344 0 0
3:35 pm 15:35 Cloudy 72 22.4 65 18.3 78 78 SSE 9 15 30.03 1017 10 16.09344 0 0
3:55 pm 15:55 Cloudy 72 22.3 65 18.1 77 77 SSE 10 17 30.03 1017 10 16.09344 0 0
4:15 pm 16:15 Cloudy 73 22.5 65 18.1 76 76 SSE 13 20 30.03 1017 10 16.09344 0 0
4:35 pm 16:35 Mostly Cloudy 73 22.7 65 18.1 75 75 SSE 13 20 30.03 1017 10 16.09344 0 0
4:55 pm 16:55 Partly Cloudy 73 22.8 65 18.4 76 76 SE 12 19 30.03 1017 10 16.09344 0 0
5:15 pm 17:15 Mostly Cloudy 72 22.4 64 17.8 75 75 SSE 13 20 30.03 1017 10 16.09344 0 0
5:35 pm 17:35 Mostly Cloudy 73 22.6 65 18.2 76 76 SE 10 17 30.03 1017 10 16.09344 0 0
5:55 pm 17:55 Mostly Cloudy 73 22.5 64 18 76 76 S 12 19 30.03 1017 10 16.09344 0 0
6:15 pm 18:15 Mostly Cloudy 72 22.2 65 18.2 78 78 SSE 9 15 30.03 1017 10 16.09344 0 0
6:35 pm 18:35 Partly Cloudy 71 21.5 64 17.9 80 80 SSE 10 17 30.03 1017 10 16.09344 0 0
7:15 pm 19:15 Sunny 69 20.8 64 17.5 82 82 SSE 8 13 30.03 1017 10 16.09344 0 0
7:35 pm 19:35 Sunny 68 20.2 64 17.6 85 85 SSE 7 11 30.06 1018 10 16.09344 0 0
7:55 pm 19:55 Sunny 67 19.7 64 17.7 88 88 SSE 6 9 30.06 1018 10 16.09344 0 0
8:15 pm 20:15 Clear 66 19 64 17.7 92 92 SE 7 11 30.06 1018 10 16.09344 0 0
8:35 pm 20:35 Clear 65 18.6 64 17.6 94 94 SSE 6 9 30.06 1018 10 16.09344 0 0
8:55 pm 20:55 Clear 65 18.2 64 17.5 96 96 SE 7 11 30.06 1018 10 16.09344 0 0
9:15 pm 21:15 Clear 64 17.9 63 17.2 96 96 SE 7 11 30.06 1018 10 16.09344 0 0
9:35 pm 21:35 Clear 64 17.7 63 17.1 96 96 SSE 5 7 30.06 1018 10 16.09344 0 0
9:55 pm 21:55 Clear 64 17.5 63 17 97 97 SSE 5 7 30.06 1018 10 16.09344 0 0
10:15 pm 22:15 Clear 63 17.1 62 16.7 98 98 SSE 5 7 30.09 1019 10 16.09344 0 0
10:35 pm 22:35 Clear 62 16.9 62 16.5 98 98 SSE 3 6 30.09 1019 10 16.09344 0 0
10:55 pm 22:55 Clear 62 16.6 62 16.5 99 99 SSE 5 7 30.09 1019 10 16.09344 0 0
11:15 pm 23:15 Clear 62 16.6 62 16.4 99 99 SSE 5 7 30.09 1019 10 16.09344 0 0
11:35 pm 23:35 Clear 62 16.5 61 16.2 98 98 S 3 6 30.09 1019 10 16.09344 0 0
11:55 pm 23:55 Clear 62 16.5 61 16.2 98 98 SSE 3 6 30.09 1019 10 16.09344 0 0

Powered by AerisWeather